[[{"header":{"parameterUnit":"m.s-1","parameterCategory":1,"la1":30.2991,"la2":30.254,"lo1":-89.0895,"lo2":-89.0444,"dy":0.0017,"dx":0.0017,"nx":28,"ny":28,"refTime":"2023-10-04T09:00:00:Z","depth":0,"parameterNumber":2,"parameterNumberName":"U-component_of_WINDS"},"data":[0,0,0,0,0,0,0,0,0,0,0,0,0,0,0,0,0,0,0,0,0,0,0,0,0,0,0,0,0,0,0,0,0,0,0,0,0,0,0,0,0,0,0,0,0,0,0,0,0,0,0,0,0,0,0,0,0,0,-5.3241,-5.3241,0,-5.3226,-5.3226,-5.3226,-5.309,-5.3086,-5.3083,-5.308,-5.3065,-5.3068,-5.307,0,0,0,0,0,0,0,0,0,0,0,0,0,-5.3154,-5.3156,-5.3241,-5.3241,-5.3241,-5.3226,-5.3226,-5.3226,-5.309,-5.3086,-5.3082,-5.3078,-5.3064,-5.3067,-5.3071,0,0,0,0,0,0,0,0,0,0,0,0,0,-5.3171,-5.3157,-5.3241,-5.3172,-5.3165,-5.3226,-5.3226,-5.3226,-5.3091,-5.3086,-5.3081,-5.3076,-5.3063,-5.3067,-5.3071,-5.3198,0,0,-5.3084,-5.3086,0,0,0,0,0,0,0,0,-5.317,-5.3174,-5.3182,-5.3176,-5.3169,-5.3155,-5.319,-5.3217,-5.3092,-5.3119,-5.308,-5.3074,-5.3099,-5.31,-5.3108,-5.3198,-5.3197,-5.3084,-5.3087,-5.3088,-5.309,0,0,0,0,0,0,0,-5.3169,-5.3174,-5.3235,-5.3182,-5.3175,-5.3141,-5.3138,-5.3194,-5.3138,-5.3116,-5.3107,-5.3107,-5.3094,-5.3104,-5.3107,-5.3197,-5.3084,-5.3088,-5.309,-5.3092,-5.339,-5.3396,0,0,0,0,0,0,-5.3178,-5.3174,-5.3236,-5.3235,-5.3157,-5.3147,-5.3143,-5.3165,-5.3137,-5.3128,-5.3111,-5.31,-5.31,-5.3102,-5.3106,-5.3252,-5.3088,-5.3092,-5.3095,-5.3385,-5.3392,-5.3397,0,0,0,0,0,0,-5.3176,-5.3184,-5.3236,-5.3202,-5.3206,-5.3154,-5.3179,-5.3167,-5.3176,-5.3133,-5.3122,-5.3131,-5.3096,-5.31,-5.3176,-5.325,-5.3094,-5.3098,-5.3379,-5.3387,-5.3395,-5.3548,0,0,0,0,0,0,-5.3174,-5.3185,-5.3232,-5.3204,-5.3208,-5.3307,-5.3183,-5.317,-5.3184,-5.317,-5.3149,-5.3141,-5.3092,-5.3171,-5.3181,-5.3253,-5.3101,-5.3372,-5.3382,-5.3392,-5.3536,-5.356,-5.3581,0,0,0,0,0,-5.3172,-5.3276,-5.3235,-5.3243,-5.3266,-5.3312,-5.3314,-5.3256,-5.3191,-5.3238,-5.321,-5.3141,-5.3241,-5.318,-5.3189,-5.3264,-5.3367,-5.3379,-5.3391,-5.3526,-5.3555,-5.358,0,0,0,0,0,0,-5.3314,-5.3271,-5.3225,-5.3323,-5.3322,-5.3289,-5.3346,-5.329,-5.3307,-5.3293,-5.3221,-5.3217,-5.3305,-5.3292,-5.3225,-5.3386,-5.3292,-5.3307,-5.3391,-5.3419,-5.3441,-5.3441,-5.3105,0,0,0,0,0,-5.3357,-5.3397,-5.3357,-5.3448,-5.345,-5.3399,-5.3416,-5.3372,-5.3368,-5.3367,-5.3344,-5.3343,-5.3374,-5.3396,-5.3422,-5.3534,-5.3527,-5.359,-5.3613,-5.3632,-5.3645,-5.3703,-5.373,-5.3438,-5.3438,-5.3437,0,0,-5.3445,-5.3427,-5.3457,-5.3476,-5.347,-5.3513,-5.3399,-5.345,-5.3481,-5.3374,-5.3445,-5.3429,-5.3423,-5.3518,-5.3559,-5.351,-5.3725,-5.3647,-5.3663,-5.3665,-5.3718,-5.3746,-5.3771,-5.3446,-5.3444,-5.3443,0,0,-5.3629,-5.362,-5.3693,-5.369,-5.3682,-5.3648,-5.3667,-5.3642,-5.3627,-5.3697,-5.3618,-5.3655,-5.371,-5.3709,-5.3715,-5.3901,-5.3839,-5.3912,-5.4029,-5.4087,-5.411,-5.413,-5.4195,-5.422,-5.3925,-5.3926,-5.3926,0,-5.374,-5.3802,-5.3739,-5.3795,-5.3806,-5.3712,-5.3787,-5.3787,-5.3788,-5.3798,-5.3744,-5.3812,-5.3801,-5.3894,-5.394,-5.3949,-5.3967,-5.3913,-5.4111,-5.4131,-5.4149,-5.421,-5.4235,-5.3935,-5.3934,-5.3933,-5.3932,0,-5.3939,-5.3983,-5.4044,-5.4048,-5.4066,-5.4132,-5.4079,-5.4105,-5.406,-5.4032,-5.4105,-5.4089,-5.411,-5.413,-5.4086,-5.4217,-5.4187,-5.4124,-5.4027,-5.4187,-5.4243,-5.4266,-5.3947,-5.3944,-5.3942,-5.3939,0,0,-5.4209,-5.4179,-5.4202,-5.4203,-5.4188,-5.4222,-5.4284,-5.4304,-5.4328,-5.4333,-5.4383,-5.4432,-5.4374,-5.4382,-5.4338,-5.4389,-5.4536,-5.4318,-5.4317,-5.4358,-5.4679,-5.4726,-5.4755,-5.4496,-5.45,-5.4503,-5.4679,0,-5.4385,-5.4487,-5.4433,-5.4543,-5.4584,-5.4496,-5.455,-5.4547,-5.4523,-5.4554,-5.4528,-5.4564,-5.4484,-5.4488,-5.4535,-5.4508,-5.4599,-5.4495,-5.4541,-5.4543,-5.4543,-5.4784,-5.4834,-5.5,-5.4701,-5.4705,-5.4708,0,-5.4602,-5.4617,-5.4731,-5.471,-5.4725,-5.4774,-5.4789,-5.482,-5.4816,-5.4795,-5.4805,-5.4749,-5.4809,-5.4715,-5.4796,-5.4726,-5.4742,-5.4733,-5.4738,-5.4738,-5.4634,-5.479,-5.5052,-5.5077,-5.4742,-5.4739,-5.4737,0,-5.4787,-5.4835,-5.491,-5.4913,-5.4891,-5.4927,-5.492,-5.4911,-5.4927,-5.4941,-5.4951,-5.4972,-5.4983,-5.5001,-5.4953,-5.4889,-5.504,-5.4942,-5.5024,-5.5026,-5.5058,-5.5057,-5.5326,-5.5072,-5.5071,-5.5071,-5.507,0,-5.4988,-5.5061,-5.4992,-5.5038,-5.5118,-5.5056,-5.5136,-5.5119,-5.5112,-5.5153,-5.508,-5.512,-5.5054,-5.5089,-5.5052,-5.5124,-5.513,-5.5115,-5.5104,-5.512,-5.5122,-5.5128,-5.5115,-5.5078,-5.5076,-5.5075,-5.5074,0,-5.5206,-5.5163,-5.5239,-5.5212,-5.5207,-5.5267,-5.5243,-5.5285,-5.5257,-5.531,-5.5319,-5.5274,-5.5311,-5.5265,-5.5297,-5.5272,-5.5371,-5.5343,-5.5372,-5.5364,-5.5448,-5.544,-5.5728,-5.5763,-5.5489,-5.5492,-5.5494,0,-5.5336,-5.539,-5.537,-5.5392,-5.5389,-5.5426,-5.5442,-5.5384,-5.5404,-5.5405,-5.5446,-5.5477,-5.5497,-5.556,-5.5531,-5.5555,-5.5527,-5.5626,-5.553,-5.5545,-5.5527,-5.5524,-5.5529,-5.5646,-5.5649,-5.5652,-5.5654,0,-5.5571,-5.5548,-5.5574,-5.5594,-5.5616,-5.5629,-5.5636,-5.5659,-5.5598,-5.5625,-5.5661,-5.5678,-5.5711,-5.5742,-5.5759,-5.5751,-5.5693,-5.5685,-5.5705,-5.5721,-5.5735,-5.5728,-5.5424,-5.5678,-5.5675,-5.5674,-5.5672,-5.5671,-5.5748,-5.5792,-5.5785,-5.5817,-5.5817,-5.5826,-5.5863,-5.584,-5.5869,-5.5891,-5.5856,-5.5902,-5.5897,-5.5914,-5.5914,-5.5949,-5.5906,-5.5935,-5.5942,-5.595,-5.5962,-5.5732,-5.5952,-5.5951,-5.595,-5.595,-5.5949,0,-5.5978,-5.5969,-5.6,-5.6013,-5.6038,-5.5982,-5.5988,-5.6013,-5.6054,-5.6055,-5.6077,-5.612,-5.615,-5.6124,-5.6149,-5.6182,-5.6156,-5.6191,-5.6187,-5.6186,-5.6,-5.5979,-5.6211,-5.6211,-5.6211,-5.6211,-5.6211,-5.6211,-5.6101,-5.6172,-5.6148,-5.622,-5.621,-5.6254,-5.6262,-5.627,-5.6271,-5.6321,-5.6346,-5.6329,-5.6319,-5.6343,-5.6369,-5.636,-5.6372,-5.6417,-5.6399,-5.6225,-5.6199,-5.6174,-5.6155,-5.642,-5.642,-5.6582,-5.6583,-5.6584]},{"header":{"parameterUnit":"m.s-1","parameterCategory":1,"la1":30.2991,"la2":30.254,"lo1":-89.0895,"lo2":-89.0444,"dy":0.0017,"dx":0.0017,"nx":28,"ny":28,"refTime":"2023-10-04T09:00:00:Z","depth":0,"parameterNumber":3,"parameterNumberName":"V-component_of_WINDS"},"data":[0,0,0,0,0,0,0,0,0,0,0,0,0,0,0,0,0,0,0,0,0,0,0,0,0,0,0,0,0,0,0,0,0,0,0,0,0,0,0,0,0,0,0,0,0,0,0,0,0,0,0,0,0,0,0,0,0,0,2.3363,2.3363,0,2.3376,2.3376,2.3376,2.3435,2.3437,2.3438,2.3439,2.3445,2.3443,2.3442,0,0,0,0,0,0,0,0,0,0,0,0,0,2.3385,2.3384,2.3363,2.3363,2.3364,2.3376,2.3376,2.3376,2.3435,2.3437,2.3438,2.344,2.3445,2.3444,2.3442,0,0,0,0,0,0,0,0,0,0,0,0,0,2.3384,2.3384,2.3363,2.3395,2.3398,2.3376,2.3376,2.3376,2.3435,2.3437,2.3439,2.3441,2.3445,2.3444,2.3442,2.3388,0,0,2.3437,2.3436,0,0,0,0,0,0,0,0,2.3384,2.3383,2.339,2.3392,2.3396,2.3406,2.3386,2.338,2.3434,2.342,2.3439,2.3442,2.343,2.3429,2.3427,2.3389,2.3389,2.3436,2.3435,2.3435,2.3434,0,0,0,0,0,0,0,2.3384,2.3383,2.3368,2.339,2.3393,2.3406,2.3409,2.3385,2.3413,2.3422,2.3426,2.3427,2.3432,2.3428,2.3427,2.3389,2.3436,2.3435,2.3434,2.3433,2.3309,2.3307,0,0,0,0,0,0,2.3381,2.3383,2.3368,2.3368,2.3395,2.3404,2.3407,2.3401,2.3413,2.3417,2.3425,2.343,2.343,2.3429,2.3428,2.3366,2.3435,2.3433,2.3432,2.3311,2.3308,2.3306,0,0,0,0,0,0,2.3381,2.3379,2.3367,2.3377,2.3376,2.3402,2.3394,2.34,2.3397,2.3416,2.3421,2.3417,2.3432,2.343,2.3399,2.3367,2.3432,2.343,2.3314,2.331,2.3307,2.3242,0,0,0,0,0,0,2.3381,2.3379,2.3359,2.3376,2.3376,2.3339,2.3392,2.3398,2.3394,2.34,2.3409,2.3413,2.3433,2.3401,2.3397,2.3366,2.3429,2.3316,2.3312,2.3308,2.3247,2.3236,2.3228,0,0,0,0,0,2.3382,2.3339,2.3358,2.3356,2.3353,2.3337,2.3337,2.3363,2.3391,2.3372,2.3385,2.3413,2.3372,2.3397,2.3393,2.3361,2.3318,2.3313,2.3308,2.3251,2.3238,2.3228,0,0,0,0,0,0,2.3314,2.3341,2.3363,2.3325,2.3329,2.3347,2.3323,2.3349,2.3343,2.3348,2.338,2.3381,2.3345,2.335,2.3378,2.331,2.335,2.3344,2.3308,2.3296,2.3287,2.3285,2.3428,0,0,0,0,0,2.3296,2.3283,2.3306,2.327,2.3271,2.3297,2.3291,2.3312,2.3316,2.3317,2.3327,2.3328,2.3316,2.3307,2.3296,2.3249,2.3251,2.3225,2.3215,2.3208,2.3201,2.3176,2.3164,2.3289,2.3289,2.3289,0,0,2.3255,2.3268,2.3258,2.3257,2.3262,2.3246,2.3297,2.3278,2.3266,2.3313,2.3284,2.3292,2.3296,2.3256,2.3239,2.3259,2.3168,2.3201,2.3195,2.3192,2.317,2.3158,2.3147,2.3286,2.3286,2.3287,0,0,2.3173,2.3183,2.3154,2.3159,2.3168,2.3186,2.3179,2.3195,2.3203,2.3175,2.321,2.3196,2.3174,2.3175,2.3173,2.3095,2.312,2.3091,2.304,2.3016,2.3006,2.2997,2.2968,2.2957,2.3085,2.3085,2.3085,0,2.3121,2.3101,2.3135,2.3114,2.3112,2.3158,2.3128,2.3131,2.3134,2.3131,2.3155,2.313,2.3135,2.3096,2.3078,2.3075,2.3067,2.3088,2.3005,2.2997,2.2989,2.2962,2.2951,2.3081,2.3082,2.3082,2.3082,0,2.3036,2.3021,2.2996,2.3002,2.2998,2.2972,2.3001,2.2992,2.3014,2.3029,2.3001,2.301,2.3002,2.2995,2.3015,2.296,2.2972,2.3,2.304,2.2973,2.2947,2.2937,2.3076,2.3077,2.3078,2.3079,0,0,2.2907,2.2936,2.2926,2.293,2.2944,2.2933,2.291,2.2905,2.2897,2.2899,2.2879,2.2861,2.2888,2.2885,2.2906,2.2885,2.2822,2.2916,2.2916,2.2896,2.276,2.2737,2.2725,2.284,2.2839,2.2837,2.2759,0,2.2828,2.2792,2.2823,2.278,2.2767,2.2812,2.2792,2.2797,2.2812,2.2801,2.2816,2.2803,2.284,2.2838,2.282,2.2833,2.2794,2.284,2.2819,2.2818,2.2815,2.2712,2.2687,2.2613,2.275,2.2748,2.2747,0,2.273,2.2731,2.2687,2.2707,2.2702,2.2684,2.2683,2.2673,2.2681,2.2693,2.2692,2.2719,2.2696,2.2738,2.2706,2.2737,2.2731,2.2736,2.2734,2.2731,2.2776,2.2703,2.259,2.2578,2.2732,2.2733,2.2734,0,2.2639,2.263,2.2603,2.2605,2.2627,2.2613,2.2621,2.2631,2.2627,2.2626,2.2624,2.2619,2.2616,2.2611,2.2636,2.2665,2.26,2.2645,2.2608,2.2607,2.2589,2.2589,2.2471,2.2589,2.259,2.259,2.259,0,2.2546,2.2517,2.2563,2.2545,2.2514,2.2551,2.2518,2.2531,2.254,2.2525,2.2564,2.2549,2.2584,2.2572,2.2591,2.2561,2.256,2.2567,2.2572,2.2563,2.2561,2.2557,2.2562,2.2587,2.2587,2.2588,2.2589,0,2.2438,2.2468,2.2441,2.2466,2.2471,2.2447,2.2467,2.2452,2.247,2.2451,2.2448,2.2476,2.2464,2.249,2.2481,2.2494,2.2451,2.2466,2.2449,2.2452,2.2413,2.2416,2.2286,2.227,2.24,2.2399,2.2398,0,2.2375,2.2355,2.2378,2.2373,2.238,2.2369,2.2367,2.2402,2.2397,2.2406,2.2389,2.2381,2.2376,2.2355,2.2373,2.2367,2.2379,2.2335,2.2378,2.2369,2.2377,2.2377,2.2374,2.2324,2.2323,2.2321,2.232,0,2.226,2.2277,2.2272,2.2273,2.227,2.2271,2.2276,2.2268,2.2306,2.2298,2.2289,2.2285,2.2278,2.2269,2.2267,2.2274,2.2302,2.2307,2.2298,2.2286,2.2277,2.228,2.2422,2.2309,2.231,2.2311,2.2312,2.2312,2.2172,2.2156,2.2171,2.2165,2.2173,2.2176,2.2163,2.2182,2.2175,2.2173,2.2195,2.218,2.2189,2.2191,2.2195,2.2183,2.2202,2.2189,2.2186,2.2181,2.2174,2.2282,2.2182,2.2183,2.2183,2.2184,2.2184,0,2.2058,2.207,2.2065,2.2071,2.2066,2.2099,2.2105,2.2098,2.2086,2.2094,2.209,2.2078,2.207,2.2089,2.2084,2.2071,2.2084,2.2068,2.2068,2.2069,2.2157,2.2165,2.2058,2.2058,2.2058,2.2058,2.2058,2.2058,2.1997,2.1972,2.1991,2.1969,2.1982,2.197,2.1971,2.1974,2.1981,2.1968,2.1962,2.1976,2.1988,2.1985,2.1979,2.1985,2.198,2.1959,2.1969,2.205,2.2062,2.2074,2.2081,2.1958,2.1958,2.1881,2.188,2.188]}]]